Regional Weather Roundup
Issued by NWS Albany, NY

Home | Current Version | Previous Version | Text Only | Print | Product List | Glossary On
Versions: 1 2 3 4 5 6 7 8 9 10 11 12 13 14 15 16 17 18 19 20 21 22 23 24 25 26 27 28 29 30 31 32 33 34 35 36 37 38 39 40 41 42 43 44 45 46 47 48 49 50
000
ASUS41 KALY 220310
RWRALY

NEW YORK STATE HOURLY WEATHER ROUNDUP
NATIONAL WEATHER SERVICE ALBANY NY
1100 PM EDT MON JUL 21 2014

NOTE: "FAIR" INDICATES FEW OR NO CLOUDS BELOW 12,000 FEET WITH NO
SIGNIFICANT WEATHER AND/OR NO OBSTRUCTIONS TO VISIBILITY.

NYZ032-033-038>043-046>054-057>066-NYZ062>081-220400-
EAST


CITY           SKY/WX    TMP DP  RH WIND       PRES   REMARKS
ALBANY         MOCLDY    75  64  68 SE3       30.14R
GLENS FALLS    PTCLDY    69  65  86 CALM      30.13S
POUGHKEEPSIE   PTCLDY    75  64  68 SE3       30.14F
MONTGOMERY     CLOUDY    71  65  81 CALM      30.16S
WHITE PLAINS   PTCLDY    69  63  81 CALM      30.18S
ISLIP          PTCLDY    70  64  81 SW6       30.17R
NEW YORK CITY  PTCLDY    74  62  66 S7        30.17S
CENTRAL PARK   CLEAR     74  61  63 CALM      30.20S
$$

NYZ005>009-017-018-044>046-055-056-220400-
CENTRAL


CITY           SKY/WX    TMP DP  RH WIND       PRES   REMARKS
FULTON         CLEAR     68  66  93 CALM      30.12S
SYRACUSE       MOCLDY    75  68  78 CALM      30.11F
ROME           CLOUDY    72  67  84 CALM      30.14S
ELMIRA         CLOUDY    75  68  78 CALM      30.16R
BINGHAMTON     CLOUDY    71  64  78 SW6       30.19S
MONTICELLO     CLEAR     66  64  94 CALM      30.21S
$$

NYZ026>034-041>043-220400-
NORTH


CITY           SKY/WX    TMP DP  RH WIND       PRES   REMARKS
WATERTOWN      CLEAR     65  60  84 CALM      30.12S
FORT DRUM      NOT AVBL
MASSENA        CLEAR     66  65  96 CALM      30.11S
SARANAC LAKE   FOG       60  59  96 CALM      30.17R VSB 3/4
PLATTSBURGH    CLEAR     69  64  84 CALM      30.10R
$$

NYZ001>004-010>016-019>021-220400-
WEST


CITY           SKY/WX    TMP DP  RH WIND       PRES   REMARKS
NIAGARA FALLS  PTCLDY    70  64  81 S3        30.13R
BUFFALO        PTCLDY    72  59  63 SW3       30.14S
DUNKIRK        CLEAR     64  60  87 CALM      30.14S
JAMESTOWN      CLEAR     68  59  73 CALM      30.19S
WELLSVILLE     CLOUDY    73  65  75 CALM      30.22S
ROCHESTER      CLEAR     70  66  87 CALM      30.14R
PENN YAN       CLEAR     70  68  93 SW7       30.15F
$$

             KEY
       WCI = WIND CHILL INDEX
       VSB = VISIBILITY
       HX  = HEAT INDEX
$$



USA.gov is the U.S. government's official web portal to all federal, state and local government web resources and services.